Regional Weather Roundup
Issued by NWS Sioux Falls, SD

Home | Current Version | Previous Version | Text Only | Print | Product List | Glossary Off
Versions: 1 2 3 4 5 6 7 8 9 10 11 12 13 14 15 16 17 18 19 20 21 22 23 24 25 26 27 28 29 30 31 32 33 34 35 36 37 38 39 40 41 42 43 44 45 46 47 48 49 50

000
ASUS43 KFSD 221302
RWRFSD

WEATHER ROUNDUP FOR SE SOUTH DAKOTA/SW MINNESOTA/NW IOWA
NATIONAL WEATHER SERVICE SIOUX FALLS SD
800 AM CDT MON SEP 22 2014

NOTE: "FAIR" INDICATES FEW OR NO CLOUDS BELOW 12,000 FEET WITH NO
SIGNIFICANT WEATHER AND OR OBSTRUCTIONS TO VISIBILITY.


SDZ038>040-050-052>070-221400-
SOUTHEAST SOUTH DAKOTA

CITY           SKY/WX    TMP DP  RH WIND       PRES   REMARKS
CHAMBERLAIN    CLEAR     44  42  90 CALM      30.22F
HURON          CLEAR     44  41  89 SE5       30.24S
MADISON        FAIR      46  46 100 S5        30.28R
MITCHELL       CLEAR     43  41  93 SE3       30.26S
SIOUX FALLS    PTCLDY    45  45 100 CALM      30.28S
WINNER         FAIR      56  43  61 S18       30.21F
YANKTON          N/A     43  41  93 CALM      30.29R VSB<1/4
$$

MNZ071-072-080-081-089-090-097-098-221400-
SOUTHWEST MINNESOTA

CITY           SKY/WX    TMP DP  RH WIND       PRES   REMARKS
FAIRMONT       CLEAR     46  43  87 CALM      30.29S
JACKSON        CLEAR     46  45  93 SW3       30.31R
LUVERNE        CLEAR     41  39  93 CALM      30.31R
MARSHALL       CLEAR     52  45  76 SW9       30.26S
MONTEVIDEO     CLEAR     48  45  87 W3        30.27S
PIPESTONE      CLEAR     46  43  87 S5        30.28S
REDWOOD FALLS  CLEAR     45  43  93 CALM      30.28R
TRACY          CLEAR     50  47  90 SW8       30.28S
WINDOM           N/A     45  45 100 S3        30.30R
WORTHINGTON    CLEAR     48  46  93 SW7       30.30S
$$

IAZ001>003-012>014-020>022-031-032-NEZ013-014-SDZ071-221400-
NORTHWEST IOWA

CITY           SKY/WX    TMP DP  RH WIND       PRES   REMARKS
CHEROKEE       FAIR      42  42 100 CALM      30.31S
DENISON        CLEAR     45  45 100 E3        30.30S
ESTHERVILLE    CLEAR     43  42  97 SW3       30.30R
LE MARS        CLEAR     45  43  93 CALM      30.31S
ORANGE CITY    CLEAR     48  45  87 CALM      30.30S
SHELDON        CLEAR     43  43 100 CALM      30.29S
SIOUX CITY     CLEAR     47  45  93 E5        30.30F
SPENCER        CLEAR     43  41  93 CALM      30.31R
$$

ABBREVIATIONS USED IN REMARKS
   TC - TEMPERATURE IN CELSIUS
  WCI - WIND CHILL INDEX
   HX - HEAT INDEX
  VSB - VISIBILITY



USA.gov is the U.S. government's official web portal to all federal, state and local government web resources and services.